Miscellaneous Local Product
Issued by NWS North Platte, NE

Home | Current Version | Previous Version | Text Only | Print | Product List | Glossary On
Versions: 1 2 3 4 5 6 7 8 9 10 11 12 13 14 15 16 17 18 19 20 21 22 23 24 25 26 27 28 29 30 31 32 33 34 35 36 37 38 39 40 41 42 43 44 45 46 47 48 49 50
215
AXUS43 KLBF 251610
MISLBF


WESTERN AND NORTH CENTRAL NEBRASKA HOURLY WEATHER ROUNDUP
NATIONAL WEATHER SERVICE NORTH PLATTE NE
1100 AM CDT THU MAY 25 2017

NOTE: "FAIR" INDICATES FEW OR NO CLOUDS BELOW 12,000 FEET WITH NO
SIGNIFICANT WEATHER AND/OR OBSTRUCTIONS TO VISIBILITY.

NOTE: STATIONS NOT REPORTING VARIABLES SUCH AS SKY/WEATHER OR
PRESSURE ARE PROVIDED BY RAWS AND APRS NETWORKS AND ARE NOT UNDER
NATIONAL WEATHER SERVICE QUALITY CONTROL.

...OBSERVATIONS IN AND NEAR THE EASTERN PANHANDLE OF NEBRASKA...

CITY           SKY/WX    TMP DP  RH WIND       PRES   REMARKS
PINE RIDGE     CLOUDY    62  42  47 N10       29.54S
GORDON         FAIR      62  42  48 NW10      29.54S
CHADRON        CLOUDY    60  45  57 W6        29.55R
ALLIANCE       MOSUNNY   66  45  46 N9        29.55R
SIDNEY         MOSUNNY   68  49  50 N12       29.56S
CRESCENT LAKE    N/A     66  47  50 N10G17      N/A
$$

...OBSERVATIONS IN NORTHERN NEBRASKA AND FAR SOUTHERN SOUTH DAKOTA...

CITY           SKY/WX    TMP DP  RH WIND       PRES   REMARKS
WINNER         FAIR      66  50  56 W13       29.45S
VALENTINE      CLOUDY    66  47  50 N12       29.47S
THEDFORD       MOSUNNY   63  49  61 CALM      29.50F
AINSWORTH      CLOUDY    60  50  69 S14       29.51R
O`NEILL        MOSUNNY   64  47  53 S16G22    29.52S
ORD            CLOUDY    59  45  59 S17       29.52F
BROKEN BOW     LGT RAIN  57  49  74 SW12      29.53F
VALENTINE NWR    N/A     60  49  67 SW3G13      N/A
HALSEY           N/A     57  46  68 S8          N/A
BUTTE            N/A     62  49  62 SW15G26     N/A
CHAMBERS         N/A     69  49  49 W6          N/A
EWING            N/A     68  50  51 S20G26      N/A
$$

...OBSERVATIONS IN SOUTHWEST NEBRASKA AND FAR NORTHEAST COLORADO...

CITY           SKY/WX    TMP DP  RH WIND       PRES   REMARKS
WRAY           FAIR      77  46  33 N10G16    29.53S
IMPERIAL       SUNNY     70  51  51 NE8       29.50R
OGALLALA       CLOUDY    65  51  61 N9        29.51S
NORTH PLATTE   MOSUNNY   62  49  62 E6        29.49F
MCCOOK         SUNNY     67  50  54 E7        29.49F
LEXINGTON      CLOUDY    62  49  63 S13       29.54S
STAPLETON        N/A     61  50  67 CALM        N/A
GOTHENBURG       N/A     58  45  62 S3          N/A
CALLAWAY         N/A     56  51  82 S12         N/A
$$

...OBSERVATIONS IN CENTRAL LINCOLN COUNTY AREA...

CITY           SKY/WX    TMP DP  RH WIND       PRES   REMARKS
N.P. AIRPORT   MOSUNNY   62  49  62 E6        29.49F
N.P. DOWNTOWN    N/A     63  51  66 CALM        N/A
N.P. SOUTHEAST   N/A     62  51  67 SE5         N/A
N.P. HILLCREST   N/A     62  51  68 SE5G12      N/A
$$

...SOME OBSERVATIONS FROM AROUND THE REGION...

CITY           SKY/WX    TMP DP  RH WIND       PRES   REMARKS
DENVER         MOSUNNY   77  33  20 SW18G29   29.58F
LIMON          SUNNY     74  41  30 VRB6      29.62F
ASPEN          CLOUDY    62  27  26 S6        29.77S
LARAMIE        CLOUDY    49  38  65 N16G23    29.71R
CASPER         PTSUNNY   52  39  61 N12       29.63R
CHEYENNE       CLOUDY    59  43  55 N14G26    29.66R
SCOTTSBLUFF    CLOUDY    65  46  50 W8        29.57R
GRAND ISLAND   CLOUDY    67  48  50 S20       29.56F
OMAHA          MOSUNNY   67  48  50 S21       29.64F
SIOUX FALLS    MOSUNNY   64  49  57 S22G43    29.55F
PIERRE         CLOUDY    58  46  64 NW13      29.42R
RAPID CITY     PTSUNNY   61  29  29 N15       29.53R
BISMARCK       PTSUNNY   62  49  62 CALM      29.43S
KANSAS CITY    MOSUNNY   68  51  54 S13       29.70F
HILL CITY      SUNNY     68  50  52 SW12G20   29.52F
WICHITA        MOSUNNY   71  51  49 S21G30    29.61F
DODGE CITY     CLOUDY    67  51  56 S22       29.51F
OKLAHOMA CITY  MOSUNNY   72  52  49 SE21      29.62F
DALLAS         MOSUNNY   81  53  37 S20       29.69S
AMARILLO       CLOUDY    86  33  15 W18G28    29.64R
$$




USA.gov is the U.S. government's official web portal to all federal, state and local government web resources and services.